Location: Newark
(51.3318°N, 0.0053°E)
Time: 02:42:05
(UTC+00:00)

Envisat - Pass Details

Date: 25 January 2022
Orbit: 764 x 765 km, 98.2° (Epoch: 28 May)

Event Time Altitude Azimuth Distance (km) Brightness Sun altitude
Rises 03:16:11 0° 31° (NNE) 3,242 6.8 -41.6°
Reaches altitude 10° 03:20:24 10° 65° (ENE) 2,308 6.1 -41.0°
Maximum altitude 03:21:58 11° 83° (E) 2,214 6.0 -40.8°
Drops below altitude 10° 03:23:32 10° 101° (ESE) 2,303 6.0 -40.6°
Sets 03:27:42 0° 135° (SE) 3,222 6.5 -40.0°
